Simultaneous Nadir Overpasses (SNOs) Predictions

Prediction of SNOs near equator between AQUA and NPP Satellite Orbit:

Table of predicted SNOs near equator for the next 14.0 days since TLE Epoch: 1/24/2022
Index Date (AQUA) Time (AQUA) AQUA Lat,Lon Date (NPP) Time (NPP) NPP Lat,Lon Distance(km) Time Diff (sec)
1 01/25/2022 00:16:05 -27.97, 15.70 01/25/2022 00:06:05 -27.98, 15.19 50.91 600
2 01/25/2022 00:58:30 2.31,-170.85 01/25/2022 00:49:35 2.23,-171.38 59.53 535
3 01/25/2022 01:46:37 2.24, -2.22 01/25/2022 01:38:57 2.39, -3.02 89.60 460
4 01/27/2022 16:26:19 -5.53, 136.73 01/27/2022 16:16:31 -5.48, 136.38 39.30 588
5 01/27/2022 17:14:34 0.95, -54.67 01/27/2022 17:06:01 0.81, -55.28 69.69 513
6 01/27/2022 18:02:42 3.54, 113.95 01/27/2022 17:55:24 3.74, 113.07 99.70 438
7 01/30/2022 08:42:24 -4.18,-107.08 01/30/2022 08:32:58 -4.06,-107.51 49.64 566
8 01/30/2022 09:30:38 -0.45, 61.53 01/30/2022 09:22:28 -0.60, 60.82 79.97 490
9 02/02/2022 00:16:36 29.97,-164.78 02/02/2022 00:06:36 30.33,-165.42 73.60 600
10 02/02/2022 00:58:28 -2.80, 9.11 02/02/2022 00:49:25 -2.66, 8.59 60.05 543
11 02/02/2022 01:46:42 -1.83, 177.72 02/02/2022 01:38:55 -2.00, 176.92 90.29 467
12 02/04/2022 16:26:23 5.86, -43.31 02/04/2022 16:16:29 5.81, -43.67 40.24 594
13 02/04/2022 17:14:31 -1.36, 125.31 02/04/2022 17:05:52 -1.25, 124.69 70.52 519
